Regional Weather Roundup
Issued by NWS Upton, NY

Current Version | Previous Version | Text Only | Print | Product List | Glossary Off
Versions: 1 2 3 4 5 6 7 8 9 10 11 12 13 14 15 16 17 18 19 20 21 22 23 24 25 26 27 28 29 30 31 32 33 34 35 36 37 38 39 40 41 42 43 44 45 46 47 48 49 50
000 ASUS41 KOKX 010704 RWROKX REGIONAL WEATHER ROUNDUP NATIONAL WEATHER SERVICE NEW YORK NY 300 AM EDT TUE SEP 01 2015 NOTE: "FAIR" INDICATES FEW OR NO CLOUDS BELOW 12,000 FEET WITH NO SIGNIFICANT WEATHER AND/OR OBSTRUCTIONS TO VISIBILITY. NYZ071-072-176-178-NJZ106-104-010800- NEW YORK CITY METRO AREA CITY SKY/WX TMP DP RH WIND PRES REMARKS CENTRAL PARK PTCLDY 80 66 62 CALM 30.03S LAGUARDIA APRT PTCLDY 80 67 64 W3 29.99S KENNEDY INTL MOCLDY 78 70 76 W7 30.01S NEWARK/LIBERTY MOCLDY 78 70 76 W5 30.00S BRNX BOT. GARD N/A 77 64 65 E1 30.00S TETERBORO PTCLDY 75 65 70 CALM 29.99S $$ NYZ177-179-078>081-010800- LONG ISLAND NEW YORK CITY SKY/WX TMP DP RH WIND PRES REMARKS FARMINGDALE PTCLDY 78 67 68 CALM 30.00S ISLIP PTCLDY 74 67 78 CALM 29.98S SHIRLEY CLEAR 72 68 87 CALM 30.00S WESTHAMPTON CLEAR 69 66 90 CALM 30.01S FOG MONTAUK POINT N/A 76 66 71 W3 29.99S $$ NYZ052-065-067-010800- HUDSON VALLEY CITY SKY/WX TMP DP RH WIND PRES REMARKS WHITE PLAINS CLEAR 72 66 81 NW3 30.01S NEWBURGH CLEAR 68 66 94 CALM 30.04S MONTGOMERY CLEAR 69 65 86 CALM 30.02S POUGHKEEPSIE CLEAR 66 64 93 CALM 30.01S ALBANY CLEAR 65 62 90 CALM 30.02S $$ NJZ001-105-106-008-010-013-015-019>022-104-010800- NEW JERSEY CITY SKY/WX TMP DP RH WIND PRES REMARKS NEWARK/LIBERTY MOCLDY 78 70 76 W5 30.00S TETERBORO PTCLDY 75 65 70 CALM 29.99S CALDWELL CLEAR 72 66 81 CALM 30.02R MORRISTOWN PTCLDY 68 63 83 CALM 30.02R SOMERVILLE PTCLDY 70 67 90 CALM 30.00S FOG SUSSEX CLEAR 65 63 93 CALM 30.04S FOG ANDOVER N/A 65 65 100 CALM 30.04S TRENTON CLEAR 73 67 81 N5 30.02S MILLVILLE CLEAR 72 70 93 W3 30.03F ATLANTIC CITY CLEAR 73 70 90 SW6 30.02F WRIGHTSTOWN CLEAR 70 67 90 SW5 29.99F TOMS RIVER CLEAR 70 64 83 SW3 30.02F BELMAR CLEAR 73 63 68 W5 30.02S $$ PAZ047>061-062-071-010800- EASTERN PENNSYLVANIA CITY SKY/WX TMP DP RH WIND PRES REMARKS PHILADELPHIA CLEAR 76 69 79 SW9 30.03S ALLENTOWN CLEAR 72 67 84 CALM 30.03S SCRANTON CLEAR 68 64 87 E6 30.06S $$ CTZ002-004>006-009-010-012-RIZ004-006-007-MAZ004-011-015-010800- SOUTHERN NEW ENGLAND IN CT CITY SKY/WX TMP DP RH WIND PRES REMARKS BRADLEY INTL CLEAR 68 62 81 CALM 29.99R HARTFORD CLEAR 72 63 73 CALM 29.99S DANBURY CLEAR 67 62 84 CALM 30.03S WTRBRY/OXFORD CLEAR 68 61 77 N7 30.03F BRIDGEPORT PTCLDY 76 66 71 CALM 29.99S MERIDEN CLEAR 68 63 84 CALM 30.00R NEW HAVEN CLEAR 75 65 70 N7 29.99S CHESTER NOT AVBL GROTON CLEAR 71 65 81 N7 29.97S WILLIMANTIC CLEAR 67 64 90 CALM 30.00R IN RI CITY SKY/WX TMP DP RH WIND PRES REMARKS PROVIDENCE CLEAR 73 62 68 NW5 29.98S BLOCK ISLAND CLEAR 73 66 78 NW5 29.98S WESTERLY CLEAR 74 64 71 NW5 29.98S IN MA CITY SKY/WX TMP DP RH WIND PRES REMARKS BOSTON PTCLDY 74 62 66 NW9 29.97S WORCESTER CLEAR 70 60 70 NW7 30.02S WESTFIELD CLEAR 66 62 87 N3 30.00S PROVINCETOWN N/A 70 63 78 NW5 29.96S NANTUCKET CLEAR 74 68 81 NW10 29.95S $$ ANZ330-335-338-340-345-350-353-355-010800- COASTAL MARINE OBSERVATIONS STATION/POSITION TIME SKY/WX TEMP WIND PRES VSBY WAVE AIR SEA DIR/SP/G HT/PER (UTC) (F) (DEG/KT/KT) (MB) (MI) (FT/S) NY HARB ENTRANCE 0550 77 76 260/ 10/ 12 1015.6 2/10 4S FIRE IS NOT AVBL 20S FIRE ISLAND 0550 76 74 260/ 12/ 14 1015.4 3/ 5 GREAT SOUTH BAY 0600 77 78 340/ 2/ 12 N/A 23SW MTP 0650 73 71 280/ 8/ 8 1015.0 3/ 6 HUDSON CANYON NOT AVBL KINGS POINT 0600 78 74 CALM / 1 1015.0 EXECUTION ROCKS 0600 78 250/ 4/ 6 N/A CENTRAL LI SOUND NOT AVBL EASTERN LI SOUND 0600 74 70 350/ 4/ 4 N/A ROBBINS REEF 0600 78 260/ 11/ 14 1014.8 $$ >>>>>>>>>>>>>>>>>>>>>>>>>>>> KEY <<<<<<<<<<<<<<<<<<<<<<<<<<< > < > SKY/WX - SKY CONDITION/PRESENT WEATHER < > TMP - TEMPERATURE IN FAHRENHEIT < > DP - DEWPOINT IN FAHRENHEIT < > RH - RELATIVE HUMIDITY IN PERCENT < > WIND - DIRECTION AND SPEED IN MPH < > PRES - MEAN SEA LEVEL PRESSURE IN INCHES OF HG < > WCI - WIND CHILL INDEX < > VSB - VISIBILITY IN MILES < > HX - HEAT INDEX < > TC - TEMPERATURE IN CELSIUS < > VRB - VARIABLE WIND DIRECTION < > < >>>>>>>>>>>>>>>>>>>>>>>>>>>> KEY <<<<<<<<<<<<<<<<<<<<<<<<<<<

USA.gov is the U.S. government's official web portal to all federal, state and local government web resources and services.